Roseburg, OR

11:56 AM PDT on July 20, 2017 (GMT -0700)
Roseburg Regional

Weather History for KRBG - September, 2013

Change the Weather History Date:

Thursday, September 12, 2013

  Actual Average Record
Temperature  
Mean Temperature 75 °F 66 °F  
Max Temperature 90 °F 80 °F 98 °F (1975)
Min Temperature 59 °F 52 °F 42 °F (1986)
Degree Days  
Heating Degree Days 0 1  
Month to date heating degree days 0 12  
Since 1 July heating degree days 1 33  
Cooling Degree Days 10 2  
Month to date cooling degree days 97 40  
Year to date cooling degree days 799 451  
Growing Degree Days 24 (Base 50)    
Moisture  
Dew Point 56 °F    
Average Humidity 61    
Maximum Humidity 87    
Minimum Humidity 34    
Precipitation  
Precipitation 0.00 in 0.02 in 0.40 in (1994)
Month to date precipitation 0.10 0.29  
Year to date precipitation 8.64 19.94  
Sea Level Pressure  
Sea Level Pressure 29.96 in    
Wind  
Wind Speed 4 mph (North)    
Max Wind Speed 14 mph    
Max Gust Speed 18 mph    
Visibility 10 miles    
Events      
T = Trace of Precipitation, MM = Missing Value Source: NWS Daily Summary

Daily Weather History Graph

Daily Weather History Graph

Search for Another Location

Airport or City:

Trip Planner

Search our weather history database for the weather conditions in past years. The results will help you decide how hot, cold, wet, or windy it might be!

Date:

Astronomy

Sep. 12, 2013 Rise Set
Actual Time 6:50 AM PDT 7:28 PM PDT
Civil Twilight 6:21 AM PDT 7:56 PM PDT
Nautical Twilight 5:47 AM PDT 8:30 PM PDT
Astronomical Twilight 5:12 AM PDT 9:05 PM PDT
Moon 2:33 PM PDT (9/12) No Moon Set
Length of Visible Light 13h 35m
Length of Day
12h 38m
Waxing Crescent, 51% of the Moon is Illuminated
Sep 12
Waxing Crescent
Sep 19
Full
Sep 26
Last Quarter
Oct 4
New
Oct 11
First Quarter

Hourly Weather History & Observations

Time (PDT) Temp. Heat Index Dew Point Humidity Pressure Visibility Wind Dir Wind Speed Gust Speed Precip Events Conditions
12:53 AM 63.0 °F - 55.9 °F 78% 29.98 in 10.0 mi North 4.6 mph - N/A   Clear
1:53 AM 62.1 °F - 55.9 °F 80% 29.99 in 10.0 mi NNW 4.6 mph - N/A   Clear
2:53 AM 61.0 °F - 55.9 °F 83% 29.99 in 10.0 mi North 4.6 mph - N/A   Clear
3:53 AM 60.1 °F - 55.9 °F 86% 29.99 in 10.0 mi NNW 3.5 mph - N/A   Clear
4:53 AM 60.1 °F - 55.0 °F 83% 30.00 in 10.0 mi North 4.6 mph - N/A   Partly Cloudy
5:14 AM 60.8 °F - 55.4 °F 82% 30.01 in 10.0 mi North 4.6 mph - N/A   Mostly Cloudy
5:29 AM 60.8 °F - 55.4 °F 82% 30.01 in 10.0 mi North 8.1 mph - N/A   Overcast
5:53 AM 60.1 °F - 55.9 °F 86% 30.00 in 10.0 mi North 4.6 mph - N/A   Overcast
6:53 AM 59.0 °F - 55.9 °F 90% 30.00 in 10.0 mi Calm Calm - N/A   Overcast
7:53 AM 60.1 °F - 55.9 °F 86% 30.01 in 10.0 mi NNE 3.5 mph - N/A   Overcast
8:53 AM 60.1 °F - 55.9 °F 86% 30.00 in 10.0 mi Calm Calm - N/A   Overcast
9:53 AM 61.0 °F - 55.9 °F 83% 30.00 in 10.0 mi Calm Calm - N/A   Overcast
10:42 AM 64.4 °F - 57.2 °F 77% 29.99 in 10.0 mi Calm Calm - N/A   Scattered Clouds
10:53 AM 66.9 °F - 57.0 °F 70% 29.99 in 10.0 mi Calm Calm - N/A   Clear
11:53 AM 73.0 °F - 57.9 °F 59% 29.96 in 10.0 mi North 3.5 mph - N/A   Clear
12:53 PM 78.1 °F - 57.0 °F 48% 29.94 in 10.0 mi Calm Calm - N/A   Clear
1:53 PM 82.9 °F 82.4 °F 57.0 °F 41% 29.92 in 10.0 mi Calm Calm - N/A   Clear
2:53 PM 87.1 °F 85.9 °F 57.0 °F 36% 29.90 in 10.0 mi North 4.6 mph - N/A   Clear
3:53 PM 89.1 °F 87.7 °F 57.0 °F 34% 29.88 in 10.0 mi North 8.1 mph - N/A   Clear
4:53 PM 89.1 °F 87.7 °F 57.0 °F 34% 29.88 in 10.0 mi North 11.5 mph - N/A   Clear
5:53 PM 86.0 °F 84.7 °F 55.9 °F 36% 29.89 in 10.0 mi NW 10.4 mph 17.3 mph N/A   Clear
6:53 PM 81.0 °F 80.8 °F 55.9 °F 42% 29.90 in 10.0 mi NW 9.2 mph - N/A   Clear
7:53 PM 77.0 °F - 57.0 °F 50% 29.91 in 10.0 mi North 6.9 mph - N/A   Clear
8:53 PM 73.9 °F - 57.0 °F 55% 29.93 in 10.0 mi North 6.9 mph - N/A   Clear
9:53 PM 72.0 °F - 55.9 °F 57% 29.94 in 10.0 mi North 5.8 mph - N/A   Clear
10:53 PM 69.1 °F - 57.0 °F 65% 29.95 in 10.0 mi Calm Calm - N/A   Clear
11:53 PM 66.9 °F - 55.9 °F 68% 29.95 in 10.0 mi Calm Calm - N/A   Clear